DW9996 Weather Reports


Display with metric or nautical units.
time (UTC)temp
F
wind
direction
speed
MPH
gust
MPH
rain 1hr
in
rain 24hr
in
rain mn
in
humidity
%
barometer
mb
20260510193017 72 174 13.0 20.0 0.00 0.01 0.00 29 1011.9
20260510191515 72 240 10.0 18.0 0.00 0.01 0.00 28 1012.0
20260510190026 72 231 12.0 21.0 0.00 0.01 0.00 29 1012.4
20260510184512 71 209 10.0 21.0 0.00 0.01 0.00 32 1012.4
20260510183010 71 182 11.0 22.0 0.00 0.01 0.00 30 1012.6
20260510181507 71 185 9.0 20.0 0.00 0.01 0.00 33 1012.8
20260510180004 71 200 11.0 20.0 0.00 0.01 0.00 34 1013.0
20260510174601 70 191 11.0 18.0 0.00 0.01 0.00 36 1013.2
20260510173056 69 209 8.0 19.0 0.00 0.01 0.00 40 1013.5
20260510171611 68 232 7.0 15.0 0.00 0.01 0.00 42 1013.6
20260510170049 66 177 10.0 17.0 0.00 0.01 0.00 43 1013.8
20260510164548 65 234 11.0 17.0 0.00 0.01 0.00 45 1013.9
20260510163043 64 220 9.0 18.0 0.00 0.01 0.00 48 1014.0
20260510161538 63 195 9.0 19.0 0.00 0.01 0.00 51 1014.1
20260510160043 61 233 7.0 15.0 0.00 0.01 0.00 55 1014.3
20260510154547 60 211 9.0 15.0 0.00 0.01 0.00 57 1014.6
20260510153042 59 208 9.0 15.0 0.00 0.01 0.00 60 1014.8
20260510151523 57 184 8.0 13.0 0.00 0.01 0.00 64 1015.0
20260510150019 56 196 7.0 12.0 0.00 0.01 0.00 68 1015.0
20260510144535 54 189 6.0 11.0 0.00 0.01 0.00 71 1015.2
20260510143010 52 192 7.0 12.0 0.00 0.01 0.00 72 1015.2
20260510141508 52 175 8.0 12.0 0.00 0.01 0.00 73 1015.3
20260510140004 50 195 7.0 11.0 0.00 0.01 0.00 74 1015.2
20260510134501 48 195 7.0 11.0 0.00 0.01 0.00 75 1015.3
20260510133002 47 200 7.0 13.0 0.00 0.01 0.00 75 1015.4
20260510131600 46 202 6.0 11.0 0.00 0.01 0.00 75 1015.4
20260510130100 46 182 7.0 11.0 0.00 0.01 0.00 75 1015.3
20260510124600 45 191 6.0 12.0 0.00 0.01 0.00 76 1015.4
20260510123059 45 194 5.0 10.0 0.00 0.01 0.00 76 1015.4
20260510121558 44 194 5.0 7.0 0.00 0.01 0.00 75 1015.5
20260510120055 44 207 3.0 5.0 0.00 0.01 0.00 76 1015.5
20260510114555 44 200 1.0 5.0 0.00 0.01 0.00 76 1015.5
20260510113052 45 188 4.0 6.0 0.00 0.01 0.00 75 1015.6
20260510111552 45 202 5.0 9.0 0.00 0.01 0.00 76 1015.6
20260510110052 44 181 2.0 7.0 0.00 0.01 0.00 75 1015.7
20260510104559 44 146 2.0 6.0 0.00 0.01 0.00 75 1015.8
20260510103049 44 141 3.0 6.0 0.00 0.01 0.00 71 1015.7
20260510101552 42 237 2.0 3.0 0.00 0.01 0.00 66 1015.9
20260510100053 41 309 0.0 1.0 0.00 0.01 0.00 68 1016.0
20260510094556 40 309 1.0 3.0 0.00 0.01 0.00 66 1015.9
20260510093049 39 309 0.0 0.0 0.00 0.01 0.00 68 1015.9
20260510091543 39 309 1.0 3.0 0.00 0.01 0.00 69 1015.9
20260510090042 39 309 0.0 2.0 0.00 0.01 0.00 69 1016.0
20260510084556 39 309 1.0 4.0 0.00 0.01 0.00 71 1016.0
20260510083042 41 309 1.0 3.0 0.00 0.01 0.00 72 1015.9
20260510081536 41 309 2.0 4.0 0.00 0.01 0.00 75 1015.9
20260510080028 44 24 1.0 3.0 0.00 0.01 0.00 75 1015.8
20260510074524 46 23 1.0 3.0 0.00 0.01 0.00 75 1016.0
20260510073034 47 31 1.0 3.0 0.00 0.01 0.00 75 1016.0
20260510071520 47 51 2.0 4.0 0.00 0.01 0.00 74 1015.8
20260510070018 47 17 0.0 3.0 0.00 0.01 0.00 75 1015.8
20260510064515 48 32 3.0 5.0 0.00 0.01 0.00 74 1015.7
20260510063014 49 45 0.0 1.0 0.00 0.01 0.00 74 1015.7
20260510061513 49 43 0.0 4.0 0.00 0.01 0.00 74 1015.6
20260510060016 48 41 2.0 4.0 0.00 0.01 0.00 74 1015.7
20260510054509 49 40 2.0 4.0 0.00 0.01 0.01 74 1015.5
20260510053009 49 74 2.0 5.0 0.00 0.01 0.01 74 1015.5
20260510051507 49 152 0.0 2.0 0.00 0.01 0.01 74 1015.3
20260510050010 49 133 2.0 3.0 0.00 0.01 0.01 73 1015.3
20260510044505 49 133 0.0 2.0 0.00 0.01 0.01 72 1015.3
20260510043005 50 130 1.0 3.0 0.00 0.01 0.01 73 1015.2
20260510041504 50 124 1.0 3.0 0.00 0.01 0.01 73 1015.2
20260510040002 51 126 1.0 3.0 0.00 0.01 0.01 73 1015.1
20260510034502 51 126 1.0 4.0 0.00 0.01 0.01 73 1015.1
20260510033108 52 142 3.0 5.0 0.00 0.01 0.01 73 1014.8
20260510031606 52 130 1.0 4.0 0.00 0.01 0.01 73 1014.7
20260510030059 54 138 1.0 4.0 0.00 0.01 0.01 71 1014.4
20260510024557 55 113 2.0 4.0 0.00 0.01 0.01 70 1014.2
20260510023055 57 122 0.0 4.0 0.00 0.01 0.01 68 1014.1
20260510021555 57 121 3.0 5.0 0.01 0.01 0.01 66 1014.1
20260510020053 59 108 5.0 10.0 0.01 0.01 0.01 60 1014.1
20260510014555 58 108 3.0 7.0 0.01 0.01 0.01 59 1014.2
20260510013106 58 149 2.0 4.0 0.01 0.01 0.01 58 1014.4
20260510011551 59 272 1.0 10.0 0.00 0.00 0.00 59 1014.5
20260510010048 63 340 2.0 4.0 0.00 0.00 0.00 45 1014.1
20260510004547 64 238 0.0 0.0 0.00 0.00 0.00 38 1014.0
20260510003050 64 225 0.0 4.0 0.00 0.00 0.00 39 1013.7
20260510001547 65 168 1.0 3.0 0.00 0.00 0.00 39 1013.7
20260510000046 65 212 1.0 4.0 0.00 0.00 0.00 39 1013.7
20260509234546 65 246 4.0 7.0 0.00 0.00 0.00 38 1013.6
20260509233045 65 228 1.0 5.0 0.00 0.00 0.00 39 1013.6
20260509231553 65 125 0.0 3.0 0.00 0.00 0.00 39 1013.6
20260509230044 65 123 1.0 3.0 0.00 0.00 0.00 38 1013.5
20260509224543 65 267 0.0 6.0 0.00 0.00 0.00 38 1013.6
20260509223145 65 213 3.0 8.0 0.00 0.00 0.00 39 1013.7
20260509221542 65 321 0.0 5.0 0.00 0.00 0.00 36 1013.5
20260509220041 65 236 4.0 9.0 0.00 0.00 0.00 36 1013.7
20260509214540 65 180 2.0 5.0 0.00 0.00 0.00 36 1013.8
20260509213039 65 194 2.0 7.0 0.00 0.00 0.00 36 1013.8
20260509211545 64 125 3.0 6.0 0.00 0.00 0.00 36 1014.0
20260509210040 64 20 2.0 5.0 0.00 0.00 0.00 35 1013.9
20260509204536 64 257 2.0 8.0 0.00 0.00 0.00 35 1013.9
20260509203036 64 259 3.0 7.0 0.00 0.00 0.00 35 1013.8
20260509201535 64 279 3.0 6.0 0.00 0.00 0.00 35 1013.7
20260509200038 63 72 4.0 8.0 0.00 0.00 0.00 35 1013.7
20260509194535 63 67 2.0 7.0 0.00 0.00 0.00 35 1013.8